• In Belgium
  • List of Countries
  • For 7 days
  • Water Temperature
  • Satellite Maps
  • Weather Map
  • Weather Widgets
  • user-avatar
    Login

    Hourly Weather Rize

    Today, 20 September, Thursday

    Time Temperature Precipitation Wind Pressure Humidity
    00:00 +21°C° 0 mm 1 mps 760 mmHg 87%
    01:00 +21°C° 0 mm 1 mps 760 mmHg 87%
    02:00 +21°C° 0 mm 1 mps 760 mmHg 86%
    03:00 +21°C° 0 mm 1 mps 760 mmHg 89%
    04:00 +21°C° 0 mm 1 mps 760 mmHg 89%
    05:00 +21°C° 0 mm 1 mps 760 mmHg 88%
    06:00 +21°C° 0 mm 1 mps 760 mmHg 88%
    07:00 +22°C° 0 mm 1 mps 760 mmHg 80%
    08:00 +24°C° 0 mm 1 mps 760 mmHg 73%
    09:00 +26°C° 0 mm 1 mps 759 mmHg 66%
    10:00 +27°C° 0 mm 2 mps 759 mmHg 64%
    11:00 +28°C° 0 mm 2 mps 759 mmHg 61%
    12:00 +29°C° 0 mm 2 mps 758 mmHg 59%
    13:00 +29°C° 0 mm 2 mps 758 mmHg 60%
    14:00 +29°C° 0 mm 2 mps 757 mmHg 61%
    15:00 +29°C° 0 mm 1 mps 757 mmHg 62%
    16:00 +28°C° 0 mm 1 mps 757 mmHg 68%
    17:00 +27°C° 0 mm 1 mps 757 mmHg 73%
    18:00 +25°C° 0 mm 1 mps 757 mmHg 79%
    19:00 +25°C° 0 mm 1 mps 757 mmHg 80%
    20:00 +24°C° 0 mm 1 mps 757 mmHg 80%
    21:00 +24°C° 0 mm 1 mps 757 mmHg 81%
    22:00 +23°C° 0 mm 1 mps 757 mmHg 81%
    23:00 +23°C° 0 mm 1 mps 757 mmHg 80%

    Tomorrow, 21 September, Friday

    Time Temperature Precipitation Wind Pressure Humidity
    00:00 +23°C° 0 mm 1 mps 757 mmHg 80%
    01:00 +23°C° 0 mm 1 mps 757 mmHg 80%
    02:00 +23°C° 0 mm 1 mps 757 mmHg 79%
    03:00 +23°C° 0 mm 1 mps 757 mmHg 78%
    04:00 +23°C° 0.1 mm 1 mps 757 mmHg 78%
    05:00 +23°C° 0.1 mm 1 mps 757 mmHg 77%
    06:00 +22°C° 0.1 mm 1 mps 757 mmHg 77%
    07:00 +24°C° 0.1 mm 1 mps 757 mmHg 72%
    08:00 +26°C° 0.1 mm 2 mps 757 mmHg 67%
    09:00 +27°C° 0.1 mm 2 mps 757 mmHg 61%
    10:00 +28°C° 0.1 mm 2 mps 757 mmHg 61%
    11:00 +29°C° 0.1 mm 2 mps 757 mmHg 60%
    12:00 +30°C° 0.1 mm 2 mps 757 mmHg 59%
    13:00 +29°C° 0.4 mm 2 mps 756 mmHg 61%
    14:00 +29°C° 0.4 mm 2 mps 756 mmHg 62%
    15:00 +29°C° 0.4 mm 2 mps 756 mmHg 63%
    16:00 +28°C° 0.3 mm 2 mps 756 mmHg 68%
    17:00 +27°C° 0.3 mm 1 mps 756 mmHg 74%
    18:00 +26°C° 0.3 mm 1 mps 756 mmHg 79%
    19:00 +25°C° 0.1 mm 1 mps 756 mmHg 79%
    20:00 +25°C° 0.1 mm 1 mps 757 mmHg 80%
    21:00 +24°C° 0.1 mm 1 mps 757 mmHg 81%
    22:00 +24°C° 0 mm 1 mps 757 mmHg 80%
    23:00 +24°C° 0 mm 1 mps 757 mmHg 79%

    Day after tomorrow, 22 September, Saturday

    Time Temperature Precipitation Wind Pressure Humidity
    00:00 +24°C° 0 mm 1 mps 757 mmHg 78%
    01:00 +23°C° 0.1 mm 1 mps 757 mmHg 77%
    02:00 +23°C° 0.1 mm 1 mps 757 mmHg 77%
    03:00 +23°C° 0.1 mm 1 mps 757 mmHg 76%
    04:00 +23°C° 0.1 mm 1 mps 757 mmHg 76%
    05:00 +23°C° 0.1 mm 1 mps 757 mmHg 76%
    06:00 +23°C° 0.1 mm 1 mps 757 mmHg 76%
    07:00 +24°C° 0.1 mm 1 mps 757 mmHg 71%
    08:00 +26°C° 0.1 mm 1 mps 757 mmHg 66%
    09:00 +27°C° 0.1 mm 1 mps 757 mmHg 61%
    10:00 +28°C° 0.1 mm 2 mps 757 mmHg 60%
    11:00 +28°C° 0.1 mm 2 mps 757 mmHg 60%
    12:00 +29°C° 0.1 mm 2 mps 757 mmHg 59%
    13:00 +29°C° 0.3 mm 2 mps 757 mmHg 62%
    14:00 +29°C° 0.3 mm 2 mps 756 mmHg 64%
    15:00 +28°C° 0.3 mm 1 mps 756 mmHg 66%
    16:00 +27°C° 0.1 mm 1 mps 756 mmHg 71%
    17:00 +26°C° 0.1 mm 1 mps 756 mmHg 76%
    18:00 +26°C° 0.1 mm 1 mps 756 mmHg 81%
    19:00 +25°C° 0 mm 1 mps 757 mmHg 81%
    20:00 +24°C° 0 mm 1 mps 757 mmHg 81%
    21:00 +24°C° 0 mm 1 mps 758 mmHg 81%
    22:00 +23°C° 0 mm 1 mps 758 mmHg 81%
    23:00 +23°C° 0 mm 1 mps 758 mmHg 80%

    23 September, Sunday

    Time Temperature Precipitation Wind Pressure Humidity
    00:00 +23°C° 0 mm 1 mps 758 mmHg 80%
    01:00 +22°C° 0 mm 1 mps 758 mmHg 79%
    02:00 +22°C° 0 mm 1 mps 758 mmHg 79%
    03:00 +22°C° 0 mm 1 mps 758 mmHg 78%
    04:00 +22°C° 0 mm 1 mps 758 mmHg 78%
    05:00 +22°C° 0 mm 1 mps 758 mmHg 78%
    06:00 +21°C° 0 mm 1 mps 758 mmHg 78%
    07:00 +23°C° 0.3 mm 1 mps 758 mmHg 73%
    08:00 +25°C° 0.3 mm 2 mps 758 mmHg 68%
    09:00 +27°C° 0.3 mm 2 mps 759 mmHg 63%
    10:00 +27°C° 0.2 mm 2 mps 758 mmHg 63%
    11:00 +28°C° 0.2 mm 2 mps 758 mmHg 63%
    12:00 +28°C° 0.2 mm 3 mps 758 mmHg 63%
    13:00 +28°C° 0.1 mm 3 mps 758 mmHg 64%
    14:00 +28°C° 0.1 mm 3 mps 758 mmHg 65%
    15:00 +28°C° 0.1 mm 3 mps 758 mmHg 66%
    16:00 +26°C° 0 mm 3 mps 758 mmHg 70%
    17:00 +25°C° 0 mm 2 mps 758 mmHg 74%
    18:00 +24°C° 0 mm 2 mps 759 mmHg 78%
    19:00 +22°C° 0 mm 3 mps 759 mmHg 74%
    20:00 +22°C° 0 mm 3 mps 760 mmHg 71%
    21:00 +21°C° 0 mm 4 mps 760 mmHg 67%
    22:00 +21°C° 0 mm 3 mps 760 mmHg 62%
    23:00 +21°C° 0 mm 3 mps 761 mmHg 57%

    24 September, Monday

    Time Temperature Precipitation Wind Pressure Humidity
    00:00 +20°C° 0 mm 3 mps 761 mmHg 52%
    01:00 +20°C° 0 mm 3 mps 761 mmHg 54%
    02:00 +20°C° 0 mm 3 mps 761 mmHg 55%
    03:00 +20°C° 0 mm 3 mps 760 mmHg 57%
    04:00 +20°C° 0 mm 3 mps 761 mmHg 59%
    05:00 +20°C° 0 mm 3 mps 761 mmHg 61%
    06:00 +19°C° 0 mm 3 mps 761 mmHg 62%
    07:00 +21°C° 0 mm 2 mps 761 mmHg 56%
    08:00 +24°C° 0 mm 2 mps 760 mmHg 49%
    09:00 +26°C° 0 mm 2 mps 760 mmHg 43%
    10:00 +27°C° 0 mm 2 mps 760 mmHg 42%
    11:00 +28°C° 0 mm 2 mps 759 mmHg 41%
    12:00 +29°C° 0 mm 2 mps 759 mmHg 40%
    13:00 +29°C° 0 mm 2 mps 758 mmHg 42%
    14:00 +29°C° 0 mm 3 mps 758 mmHg 45%
    15:00 +29°C° 0 mm 3 mps 757 mmHg 48%
    16:00 +28°C° 0 mm 2 mps 757 mmHg 57%
    17:00 +26°C° 0 mm 2 mps 757 mmHg 65%
    18:00 +25°C° 0 mm 2 mps 757 mmHg 73%
    19:00 +24°C° 0 mm 2 mps 757 mmHg 73%
    20:00 +24°C° 0 mm 2 mps 757 mmHg 73%
    21:00 +24°C° 0 mm 2 mps 757 mmHg 72%
    22:00 +23°C° 0 mm 1 mps 757 mmHg 71%
    23:00 +23°C° 0 mm 1 mps 757 mmHg 70%

    25 September, Tuesday

    Time Temperature Precipitation Wind Pressure Humidity
    00:00 +23°C° 0 mm 1 mps 757 mmHg 68%
    01:00 +23°C° 0 mm 2 mps 757 mmHg 67%
    02:00 +23°C° 0 mm 2 mps 757 mmHg 66%
    03:00 +23°C° 0 mm 2 mps 757 mmHg 66%
    04:00 +23°C° 0 mm 1 mps 757 mmHg 65%
    05:00 +22°C° 0 mm 1 mps 757 mmHg 65%
    06:00 +22°C° 0 mm 1 mps 757 mmHg 65%
    07:00 +24°C° 0 mm 1 mps 757 mmHg 61%
    08:00 +26°C° 0 mm 1 mps 757 mmHg 56%
    09:00 +28°C° 0 mm 1 mps 758 mmHg 51%
    10:00 +29°C° 0 mm 1 mps 757 mmHg 51%
    11:00 +29°C° 0 mm 2 mps 757 mmHg 50%
    12:00 +30°C° 0 mm 2 mps 757 mmHg 49%
    13:00 +30°C° 0 mm 2 mps 757 mmHg 53%
    14:00 +29°C° 0 mm 2 mps 757 mmHg 56%
    15:00 +29°C° 0 mm 2 mps 756 mmHg 60%
    16:00 +28°C° 0 mm 2 mps 757 mmHg 67%
    17:00 +27°C° 0 mm 2 mps 757 mmHg 75%
    18:00 +25°C° 0 mm 2 mps 757 mmHg 82%
    19:00 +25°C° 0 mm 1 mps 757 mmHg 85%
    20:00 +24°C° 0 mm 1 mps 757 mmHg 87%
    21:00 +24°C° 0 mm 1 mps 758 mmHg 89%
    22:00 +23°C° 0 mm 1 mps 758 mmHg 90%
    23:00 +23°C° 0 mm 1 mps 758 mmHg 90%
    Show more